{"data":{"norad_id":58090,"epoch":"2026-05-24T23:58:32.138112Z","epoch_age_seconds":65292,"freshness":"FRESH","line1":"1 58090U 23160R   26144.99898308 -.00001423  00000+0 -42217-4 0  9996","line2":"2 58090  43.0028  10.5501 0000953 269.9142  90.1601 15.27565211144576","mean_motion":15.27565211,"eccentricity":9.53e-5,"inclination_deg":43.0028,"raan_deg":10.5501,"arg_perigee_deg":269.9142,"mean_anomaly_deg":90.1601,"bstar":-4.2217e-5,"rev_number":14457,"period_min":94.267661349614,"perigee_km":482.43950472803,"apogee_km":483.74725523845,"semimajor_km":6861.2303799832,"source":"CELESTRAK","updated_at":"2026-05-25T13:38:18.524255Z"}}